Regional Weather Roundup
Issued by NWS

Home | Current Version | Previous Version | Graphics & Text | Print | Product List | Glossary On
Versions: 1 2 3 4 5 6 7 8 9 10 11 12 13 14 15 16 17 18 19 20 21 22 23 24 25 26 27 28 29 30 31 32 33 34 35 36 37 38 39 40 41 42 43 44 45 46 47 48 49 50
000
ASUS43 KBIS 270510
RWRND

NORTH DAKOTA REGIONAL WEATHER ROUNDUP
NATIONAL WEATHER SERVICE BISMARCK ND
1200 AM CDT THU JUL 27 2017

NOTE: "FAIR" INDICATES FEW OR NO CLOUDS BELOW 12,000 FEET WITH NO
SIGNIFICANT WEATHER AND/OR OBSTRUCTIONS TO VISIBILITY.


NDZ001>003-009>011-017-270600-
NORTHWEST NORTH DAKOTA

CITY           SKY/WX    TMP DP  RH WIND       PRES   REMARKS
WILLISTON      PTCLDY    77  51  40 E15       30.09R
MINOT          PTCLDY    67  54  63 SE5       30.12R
MINOT AFB      CLEAR     64  55  74 E5        30.10S
$$

NDZ018>021-031>035-040>046-270600-
SOUTHWEST NORTH DAKOTA

CITY           SKY/WX    TMP DP  RH WIND       PRES   REMARKS
BISMARCK       CLEAR     66  55  67 E7        30.14R
DICKINSON      CLEAR     66  51  58 E9        30.12R
GARRISON         N/A     67  55  65 E7        30.13R
HETTINGER ARPT CLEAR     70  53  54 E9        30.14R
$$

NDZ004>008-012>016-024-026-027-054-270600-
NORTHEAST NORTH DAKOTA

CITY           SKY/WX    TMP DP  RH WIND       PRES   REMARKS
GRAND FORKS    CLEAR     62  60  93 W5        30.09R
GRND FRKS AFB  CLEAR     59  57  95 W3        30.10R
DEVILS LAKE    CLEAR     62  57  83 CALM      30.14R
$$

NDZ022-023-025-028>030-036>039-047>053-270600-
SOUTHEAST NORTH DAKOTA

CITY           SKY/WX    TMP DP  RH WIND       PRES   REMARKS
FARGO          CLEAR     62  59  90 CALM      30.09R
JAMESTOWN      CLEAR     61  57  87 NE6       30.12S
$$





USA.gov is the U.S. government's official web portal to all federal, state and local government web resources and services.